• In Hungary
  • List of Countries
  • For 7 days
  • Water Temperature
  • Satellite Maps
  • Weather Map
  • News
  • Weather Widgets
  • user-avatar
    Login

    Hourly Weather Dubai

    Today, 22 June, Friday

    Time Temperature Precipitation Wind Pressure Humidity
    00:00 +37°C° 0 mm 3 mps 748 mmHg 49%
    01:00 +36°C° 0 mm 3 mps 748 mmHg 50%
    02:00 +36°C° 0 mm 3 mps 748 mmHg 52%
    03:00 +35°C° 0 mm 3 mps 748 mmHg 53%
    04:00 +35°C° 0 mm 4 mps 748 mmHg 57%
    05:00 +35°C° 0 mm 4 mps 748 mmHg 56%
    06:00 +35°C° 0 mm 5 mps 748 mmHg 55%
    07:00 +36°C° 0 mm 5 mps 748 mmHg 55%
    08:00 +37°C° 0 mm 5 mps 748 mmHg 49%
    09:00 +40°C° 0 mm 5 mps 749 mmHg 44%
    10:00 +42°C° 0 mm 5 mps 749 mmHg 39%
    11:00 +44°C° 0 mm 6 mps 748 mmHg 37%
    12:00 +45°C° 0 mm 6 mps 748 mmHg 36%
    13:00 +46°C° 0 mm 6 mps 748 mmHg 34%
    14:00 +45°C° 0 mm 6 mps 748 mmHg 36%
    15:00 +45°C° 0 mm 6 mps 747 mmHg 37%
    16:00 +45°C° 0 mm 6 mps 747 mmHg 38%
    17:00 +42°C° 0 mm 5 mps 747 mmHg 42%
    18:00 +41°C° 0 mm 5 mps 747 mmHg 46%
    19:00 +40°C° 0 mm 4 mps 747 mmHg 50%
    20:00 +38°C° 0 mm 4 mps 747 mmHg 53%
    21:00 +37°C° 0 mm 4 mps 747 mmHg 57%
    22:00 +37°C° 0 mm 4 mps 748 mmHg 60%
    23:00 +36°C° 0 mm 4 mps 747 mmHg 62%

    Tomorrow, 23 June, Saturday

    Time Temperature Precipitation Wind Pressure Humidity
    00:00 +36°C° 0 mm 4 mps 747 mmHg 64%
    01:00 +35°C° 0 mm 4 mps 747 mmHg 66%
    02:00 +35°C° 0 mm 4 mps 747 mmHg 68%
    03:00 +34°C° 0 mm 4 mps 747 mmHg 69%
    04:00 +34°C° 0 mm 4 mps 747 mmHg 70%
    05:00 +34°C° 0 mm 4 mps 748 mmHg 69%
    06:00 +34°C° 0 mm 4 mps 748 mmHg 67%
    07:00 +34°C° 0 mm 4 mps 748 mmHg 65%
    08:00 +36°C° 0 mm 4 mps 748 mmHg 57%
    09:00 +38°C° 0 mm 4 mps 749 mmHg 48%
    10:00 +41°C° 0 mm 4 mps 749 mmHg 40%
    11:00 +42°C° 0 mm 4 mps 749 mmHg 37%
    12:00 +43°C° 0 mm 5 mps 748 mmHg 34%
    13:00 +45°C° 0 mm 5 mps 748 mmHg 31%
    14:00 +45°C° 0 mm 5 mps 748 mmHg 32%
    15:00 +45°C° 0 mm 5 mps 747 mmHg 34%
    16:00 +43°C° 0 mm 5 mps 747 mmHg 35%
    17:00 +42°C° 0 mm 5 mps 747 mmHg 39%
    18:00 +41°C° 0 mm 4 mps 747 mmHg 43%
    19:00 +40°C° 0 mm 4 mps 746 mmHg 47%
    20:00 +38°C° 0 mm 4 mps 747 mmHg 52%
    21:00 +37°C° 0 mm 4 mps 747 mmHg 56%
    22:00 +36°C° 0 mm 4 mps 747 mmHg 61%
    23:00 +36°C° 0 mm 4 mps 747 mmHg 64%

    Day after tomorrow, 24 June, Sunday

    Time Temperature Precipitation Wind Pressure Humidity
    00:00 +36°C° 0 mm 4 mps 747 mmHg 66%
    01:00 +35°C° 0 mm 4 mps 747 mmHg 69%
    02:00 +35°C° 0 mm 4 mps 747 mmHg 70%
    03:00 +34°C° 0 mm 3 mps 747 mmHg 72%
    04:00 +34°C° 0 mm 3 mps 747 mmHg 74%
    05:00 +34°C° 0 mm 3 mps 747 mmHg 72%
    06:00 +34°C° 0 mm 3 mps 747 mmHg 71%
    07:00 +35°C° 0 mm 3 mps 748 mmHg 69%
    08:00 +36°C° 0 mm 3 mps 748 mmHg 60%
    09:00 +38°C° 0 mm 3 mps 748 mmHg 51%
    10:00 +41°C° 0 mm 4 mps 749 mmHg 42%
    11:00 +42°C° 0 mm 4 mps 748 mmHg 39%
    12:00 +43°C° 0 mm 5 mps 748 mmHg 35%
    13:00 +45°C° 0 mm 5 mps 748 mmHg 32%
    14:00 +45°C° 0 mm 5 mps 748 mmHg 33%
    15:00 +45°C° 0 mm 5 mps 747 mmHg 34%
    16:00 +45°C° 0 mm 6 mps 747 mmHg 35%
    17:00 +42°C° 0 mm 5 mps 747 mmHg 38%
    18:00 +41°C° 0 mm 5 mps 747 mmHg 42%
    19:00 +40°C° 0 mm 4 mps 747 mmHg 46%
    20:00 +38°C° 0 mm 4 mps 747 mmHg 50%
    21:00 +38°C° 0 mm 4 mps 748 mmHg 54%
    22:00 +37°C° 0 mm 4 mps 748 mmHg 58%
    23:00 +36°C° 0 mm 4 mps 748 mmHg 60%

    25 June, Monday

    Time Temperature Precipitation Wind Pressure Humidity
    00:00 +36°C° 0 mm 4 mps 747 mmHg 63%
    01:00 +35°C° 0 mm 4 mps 747 mmHg 65%
    02:00 +35°C° 0 mm 4 mps 747 mmHg 67%
    03:00 +35°C° 0 mm 4 mps 747 mmHg 69%
    04:00 +34°C° 0 mm 4 mps 747 mmHg 71%
    05:00 +35°C° 0 mm 4 mps 747 mmHg 70%
    06:00 +35°C° 0 mm 3 mps 747 mmHg 69%
    07:00 +35°C° 0 mm 3 mps 748 mmHg 68%
    08:00 +37°C° 0 mm 4 mps 748 mmHg 58%
    09:00 +40°C° 0 mm 4 mps 748 mmHg 48%
    10:00 +42°C° 0 mm 4 mps 748 mmHg 38%
    11:00 +43°C° 0 mm 5 mps 748 mmHg 36%
    12:00 +45°C° 0 mm 6 mps 748 mmHg 33%
    13:00 +45°C° 0 mm 6 mps 747 mmHg 31%
    14:00 +45°C° 0 mm 6 mps 747 mmHg 32%
    15:00 +45°C° 0 mm 6 mps 746 mmHg 34%
    16:00 +44°C° 0 mm 6 mps 746 mmHg 35%
    17:00 +42°C° 0 mm 6 mps 746 mmHg 38%
    18:00 +41°C° 0 mm 5 mps 746 mmHg 40%
    19:00 +40°C° 0 mm 5 mps 746 mmHg 43%
    20:00 +40°C° 0 mm 4 mps 746 mmHg 45%
    21:00 +38°C° 0 mm 4 mps 746 mmHg 48%
    22:00 +37°C° 0 mm 4 mps 746 mmHg 51%
    23:00 +37°C° 0 mm 3 mps 746 mmHg 50%

    26 June, Tuesday

    Time Temperature Precipitation Wind Pressure Humidity
    00:00 +36°C° 0 mm 3 mps 746 mmHg 49%
    01:00 +36°C° 0 mm 3 mps 746 mmHg 48%
    02:00 +36°C° 0 mm 3 mps 746 mmHg 46%
    03:00 +35°C° 0 mm 4 mps 745 mmHg 44%
    04:00 +35°C° 0 mm 4 mps 745 mmHg 42%
    05:00 +36°C° 0 mm 4 mps 746 mmHg 40%
    06:00 +36°C° 0 mm 4 mps 746 mmHg 37%
    07:00 +37°C° 0 mm 4 mps 746 mmHg 35%
    08:00 +38°C° 0 mm 4 mps 747 mmHg 33%
    09:00 +40°C° 0 mm 3 mps 747 mmHg 30%
    10:00 +43°C° 0 mm 3 mps 747 mmHg 28%
    11:00 +43°C° 0 mm 4 mps 747 mmHg 28%
    12:00 +44°C° 0 mm 4 mps 746 mmHg 28%
    13:00 +46°C° 0 mm 5 mps 746 mmHg 28%
    14:00 +45°C° 0 mm 5 mps 746 mmHg 32%
    15:00 +45°C° 0 mm 5 mps 745 mmHg 35%
    16:00 +43°C° 0 mm 5 mps 745 mmHg 38%
    17:00 +42°C° 0 mm 4 mps 745 mmHg 42%
    18:00 +40°C° 0 mm 3 mps 745 mmHg 47%
    19:00 +39°C° 0 mm 3 mps 745 mmHg 51%
    20:00 +38°C° 0 mm 3 mps 745 mmHg 53%
    21:00 +38°C° 0 mm 3 mps 745 mmHg 56%
    22:00 +37°C° 0 mm 3 mps 746 mmHg 58%
    23:00 +37°C° 0 mm 2 mps 745 mmHg 62%

    27 June, Wednesday

    Time Temperature Precipitation Wind Pressure Humidity
    00:00 +36°C° 0 mm 2 mps 745 mmHg 66%
    01:00 +34°C° 0 mm 1 mps 745 mmHg 70%
    02:00 +35°C° 0 mm 2 mps 745 mmHg 67%
    03:00 +35°C° 0 mm 2 mps 745 mmHg 64%
    04:00 +35°C° 0 mm 3 mps 745 mmHg 62%
    05:00 +36°C° 0 mm 2 mps 745 mmHg 54%
    06:00 +37°C° 0 mm 2 mps 745 mmHg 47%
    07:00 +39°C° 0 mm 2 mps 746 mmHg 40%
    08:00 +41°C° 0 mm 2 mps 746 mmHg 34%
    09:00 +44°C° 0 mm 3 mps 746 mmHg 28%
    10:00 +46°C° 0 mm 3 mps 747 mmHg 22%
    11:00 +47°C° 0 mm 4 mps 746 mmHg 22%
    12:00 +48°C° 0 mm 5 mps 746 mmHg 21%
    13:00 +48°C° 0 mm 6 mps 746 mmHg 21%
    14:00 +48°C° 0 mm 6 mps 745 mmHg 20%
    15:00 +48°C° 0 mm 5 mps 745 mmHg 19%
    16:00 +49°C° 0 mm 5 mps 744 mmHg 18%
    17:00 +48°C° 0 mm 5 mps 744 mmHg 17%
    18:00 +47°C° 0 mm 5 mps 745 mmHg 16%
    19:00 +47°C° 0 mm 5 mps 745 mmHg 15%
    20:00 +45°C° 0 mm 4 mps 745 mmHg 16%
    21:00 +44°C° 0 mm 4 mps 745 mmHg 16%
    22:00 +43°C° 0 mm 4 mps 746 mmHg 17%
    23:00 +42°C° 0 mm 4 mps 745 mmHg 17%
    Show more